This is the latest recevied weather packets stored in our database for station/object KC1HBM. If no packets are shown the sender has not sent any weather packets the latest 10 day(s).
| Time | Temp. | Humidity | Pressure | Rain* | Wind** | Luminosity | Snow |
|---|---|---|---|---|---|---|---|
| 1777843789 | 11.11° C | 53% | 1002 hPa | 0 mm | - | 19 W/m² | - |
| 1777843487 | 11.11° C | 53% | 1002 hPa | 0 mm | - | 26 W/m² | - |
| 1777843184 | 11.11° C | 53% | 1002 hPa | 0 mm | - | 31 W/m² | - |
| 1777842881 | 11.11° C | 53% | 1002.1 hPa | 0 mm | - | 44 W/m² | - |
| 1777842577 | 11.11° C | 53% | 1002 hPa | 0 mm | - | 46 W/m² | - |
| 1777842274 | 11.11° C | 53% | 1002 hPa | 0 mm | - | 41 W/m² | - |
| 1777841968 | 11.67° C | 51% | 1002 hPa | 0 mm | - | 41 W/m² | - |
| 1777841666 | 11.67° C | 52% | 1002 hPa | 0 mm | - | 57 W/m² | - |
| 1777841362 | 11.67° C | 52% | 1002 hPa | 0 mm | - | 58 W/m² | - |
| 1777841059 | 11.67° C | 52% | 1001.7 hPa | 0 mm | - | 55 W/m² | - |
| 1777840756 | 11.67° C | 50% | 1001.8 hPa | 0 mm | - | 72 W/m² | - |
| 1777840454 | 11.67° C | 51% | 1001.9 hPa | 0 mm | - | 73 W/m² | - |
| 1777840150 | 11.67° C | 50% | 1002 hPa | 0 mm | - | 85 W/m² | - |
| 1777839849 | 11.67° C | 51% | 1002.1 hPa | 0 mm | - | 91 W/m² | - |
| 1777839547 | 11.67° C | 50% | 1001.9 hPa | 0 mm | - | 86 W/m² | - |
| 1777839243 | 11.67° C | 51% | 1002.1 hPa | 0 mm | - | 84 W/m² | - |
| 1777838941 | 11.67° C | 53% | 1001.8 hPa | 0 mm | - | 84 W/m² | - |
| 1777838636 | 12.22° C | 53% | 1001.7 hPa | 0 mm | - | 70 W/m² | - |
| 1777838334 | 12.22° C | 52% | 1001.8 hPa | 0 mm | - | 88 W/m² | - |
| 1777838030 | 12.22° C | 53% | 1001.7 hPa | 0 mm | - | 97 W/m² | - |
| 1777837728 | 12.22° C | 52% | 1001.8 hPa | 0 mm | - | 82 W/m² | - |
| 1777837424 | 12.22° C | 53% | 1002 hPa | 0 mm | - | 60 W/m² | - |
| 1777837120 | 11.67° C | 53% | 1002.2 hPa | 0 mm | - | 104 W/m² | - |
| 1777836816 | 11.67° C | 54% | 1001.8 hPa | 0 mm | - | 115 W/m² | - |
| 1777836512 | 11.67° C | 55% | 1002.1 hPa | 0 mm | - | 102 W/m² | - |
* Rain latest hour (hover to see other rain measurements)
** Current wind speed in m/s (hover to see current wind gust speed)